Shannon, Ireland

6:37 AM IST on May 28, 2017 (GMT +0100)
Shannon

Weather History for EINN - November, 2012

Change the Weather History Date:

Tuesday, November 6, 2012

  Actual Average Record
Temperature  
Mean Temperature 45 °F -  
Max Temperature 51 °F 50 °F 60 °F (2003)
Min Temperature 39 °F 40 °F 35 °F (2016)
Degree Days  
Heating Degree Days 20    
Moisture  
Dew Point 43 °F    
Average Humidity 84    
Maximum Humidity 100    
Minimum Humidity 71    
Precipitation  
Precipitation 0.00 in 0.13 in - ()
Sea Level Pressure  
Sea Level Pressure 30.26 in    
Wind  
Wind Speed 9 mph ()    
Max Wind Speed 20 mph    
Max Gust Speed -    
Visibility 6.5 miles    
Events Rain    
Averages and records for this station are not official NWS values.
T = Trace of Precipitation, MM = Missing Value Source: Averaged Metar Reports

Daily Weather History Graph

Daily Weather History Graph

Search for Another Location

Airport or City:

Trip Planner

Search our weather history database for the weather conditions in past years. The results will help you decide how hot, cold, wet, or windy it might be!

Date:

Astronomy

Nov. 06, 2012 Rise Set
Actual Time 7:42 AM GMT 4:55 PM GMT
Civil Twilight 7:05 AM GMT 5:32 PM GMT
Nautical Twilight 6:24 AM GMT 6:13 PM GMT
Astronomical Twilight 5:44 AM GMT 6:53 PM GMT
Moon 11:28 PM GMT (11/6) 1:22 PM GMT (11/6)
Length of Visible Light 10h 27m
Length of Day
9h 13m
Waning Gibbous, 55% of the Moon is Illuminated
Nov 6
Waning Gibbous
Nov 7
Last Quarter
Nov 13
New
Nov 20
First Quarter
Nov 28
Full

Hourly Weather History & Observations

Time (GMT) Temp. Windchill Dew Point Humidity Pressure Visibility Wind Dir Wind Speed Gust Speed Precip Events Conditions
12:00 AM 40 °F - 38 °F 88% 30.21 in 12 mi NW 6.7 mph - -   Scattered Clouds
12:00 AM 39.2 °F 35.0 °F 37.4 °F 93% 30.18 in 6.2 mi NW 5.8 mph - N/A   Partly Cloudy
12:30 AM 41.0 °F 37.1 °F 39.2 °F 93% 30.21 in 6.2 mi WNW 5.8 mph - N/A   Scattered Clouds
1:00 AM 42.8 °F 40.1 °F 39.2 °F 87% 30.18 in 6.2 mi West 4.6 mph - N/A   Mostly Cloudy
1:30 AM 44.6 °F - 41.0 °F 87% 30.18 in 6.2 mi Variable 2.3 mph - N/A   Mostly Cloudy
2:00 AM 44.6 °F - 41.0 °F 87% 30.18 in 6.2 mi Variable 1.2 mph - N/A   Mostly Cloudy
2:30 AM 44.6 °F 39.7 °F 42.8 °F 93% 30.21 in 6.2 mi West 9.2 mph - N/A   Mostly Cloudy
3:00 AM 46.4 °F 41.5 °F 42.8 °F 87% 30.21 in 6.2 mi West 10.4 mph - N/A   Mostly Cloudy
3:30 AM 46.4 °F 41.1 °F 42.8 °F 87% 30.21 in 6.2 mi West 11.5 mph - N/A   Mostly Cloudy
4:00 AM 46.4 °F 41.1 °F 44.6 °F 93% 30.21 in 6.2 mi West 11.5 mph - N/A   Mostly Cloudy
4:30 AM 46.4 °F 42.4 °F 44.6 °F 93% 30.21 in 6.2 mi WSW 8.1 mph - N/A   Mostly Cloudy
5:00 AM 48.2 °F - 44.6 °F 87% 30.21 in 6.2 mi WSW 10.4 mph - N/A   Mostly Cloudy
5:30 AM 48.2 °F - 44.6 °F 87% 30.21 in 6.2 mi WSW 10.4 mph - N/A   Mostly Cloudy
6:00 AM 48 °F - 46 °F 91% 30.23 in 6 mi West 8.9 mph - - Rain Light Rain
6:00 AM 48.2 °F - 46.4 °F 93% 30.21 in 6.2 mi West 9.2 mph - N/A Rain Light Rain
6:30 AM 48.2 °F - 46.4 °F 93% 30.21 in 6.2 mi West 9.2 mph - N/A   Mostly Cloudy
7:00 AM 48.2 °F - 46.4 °F 93% 30.21 in 6.2 mi West 11.5 mph - N/A   Mostly Cloudy
7:30 AM 48.2 °F - 44.6 °F 87% 30.24 in 6.2 mi West 10.4 mph - N/A   Mostly Cloudy
8:00 AM 48.2 °F - 44.6 °F 87% 30.24 in 6.2 mi WSW 8.1 mph - N/A   Mostly Cloudy
8:30 AM 46.4 °F 42.4 °F 44.6 °F 93% 30.24 in 6.2 mi West 8.1 mph - N/A   Mostly Cloudy
9:00 AM 48.2 °F - 46.4 °F 93% 30.24 in 6.2 mi West 9.2 mph - N/A   Mostly Cloudy
9:30 AM 48.2 °F - 48.2 °F 100% 30.27 in 6.2 mi West 10.4 mph - N/A   Mostly Cloudy
10:00 AM 50.0 °F - 44.6 °F 82% 30.27 in 6.2 mi West 16.1 mph - N/A   Mostly Cloudy
10:30 AM 50.0 °F - 44.6 °F 82% 30.27 in 6.2 mi West 13.8 mph - N/A   Mostly Cloudy
11:00 AM 51.8 °F - 44.6 °F 76% 30.27 in 6.2 mi West 16.1 mph - N/A   Mostly Cloudy
11:30 AM 51.8 °F - 44.6 °F 76% 30.27 in 6.2 mi West 18.4 mph - N/A   Mostly Cloudy
12:00 PM 51 °F - 44 °F 71% 30.30 in 9 mi West 13.4 mph - -   Mist
12:00 PM 51.8 °F - 44.6 °F 76% 30.30 in 6.2 mi West 13.8 mph - N/A   Mostly Cloudy
12:30 PM 51.8 °F - 44.6 °F 76% 30.30 in 6.2 mi WNW 16.1 mph - N/A   Mostly Cloudy
1:00 PM 51.8 °F - 44.6 °F 76% 30.27 in 6.2 mi West 12.7 mph - N/A   Mostly Cloudy
1:30 PM 51.8 °F - 44.6 °F 76% 30.30 in 6.2 mi West 17.3 mph - N/A   Mostly Cloudy
2:00 PM 51.8 °F - 44.6 °F 76% 30.27 in 6.2 mi West 18.4 mph - N/A   Mostly Cloudy
2:30 PM 51.8 °F - 42.8 °F 71% 30.27 in 6.2 mi West 19.6 mph - N/A   Mostly Cloudy
3:00 PM 51.8 °F - 44.6 °F 76% 30.30 in 6.2 mi West 15.0 mph - N/A   Mostly Cloudy
3:30 PM 50.0 °F - 42.8 °F 76% 30.30 in 6.2 mi West 16.1 mph - N/A   Mostly Cloudy
4:00 PM 50.0 °F - 42.8 °F 76% 30.30 in 6.2 mi West 17.3 mph - N/A   Mostly Cloudy
4:30 PM 50.0 °F - 42.8 °F 76% 30.30 in 6.2 mi West 12.7 mph - N/A   Mostly Cloudy
5:00 PM 50.0 °F - 42.8 °F 76% 30.30 in 6.2 mi West 13.8 mph - N/A   Mostly Cloudy
5:30 PM 48.2 °F - 42.8 °F 82% 30.30 in 6.2 mi West 15.0 mph - N/A   Mostly Cloudy
6:00 PM 49 °F - 43 °F 72% 30.32 in 11 mi West 13.4 mph - -   Mostly Cloudy
6:00 PM 48.2 °F - 42.8 °F 82% 30.30 in 6.2 mi West 13.8 mph - N/A   Mostly Cloudy
6:30 PM 48.2 °F - 42.8 °F 82% 30.30 in 6.2 mi West 12.7 mph - N/A   Mostly Cloudy
7:00 PM 48.2 °F - 42.8 °F 82% 30.30 in 6.2 mi West 13.8 mph - N/A   Mostly Cloudy
7:30 PM 48.2 °F - 42.8 °F 82% 30.33 in 6.2 mi West 10.4 mph - N/A   Mostly Cloudy
8:00 PM 48.2 °F - 42.8 °F 82% 30.33 in 6.2 mi West 11.5 mph - N/A   Mostly Cloudy
8:30 PM 48.2 °F - 42.8 °F 82% 30.33 in 6.2 mi West 10.4 mph - N/A   Mostly Cloudy
9:00 PM 48.2 °F - 42.8 °F 82% 30.33 in 6.2 mi West 11.5 mph - N/A   Mostly Cloudy
9:30 PM 48.2 °F - 42.8 °F 82% 30.33 in 6.2 mi West 17.3 mph - N/A   Mostly Cloudy
10:00 PM 48.2 °F - 42.8 °F 82% 30.30 in 6.2 mi WSW 9.2 mph - N/A   Mostly Cloudy
10:30 PM 48.2 °F - 42.8 °F 82% 30.30 in 6.2 mi West 11.5 mph - N/A   Mostly Cloudy
11:00 PM 48.2 °F - 42.8 °F 82% 30.33 in 6.2 mi West 10.4 mph - N/A   Overcast
11:30 PM 48.2 °F - 42.8 °F 82% 30.30 in 6.2 mi West 11.5 mph - N/A   Overcast